TimeMST,TemperatureF,Dew PointF,Humidity,Sea Level PressureIn,VisibilityMPH,Wind Direction,Wind SpeedMPH,Gust SpeedMPH,PrecipitationIn,Events,Conditions,WindDirDegrees,DateUTC
12:15 AM,19.4,10.4,68,30.42,10.0,NE,4.6,-,N/A,,Mostly Cloudy,50,2012-11-13 07:15:00
12:35 AM,19.4,8.6,63,30.41,10.0,Calm,Calm,-,N/A,,Mostly Cloudy,0,2012-11-13 07:35:00
12:55 AM,19.4,8.6,63,30.40,10.0,Calm,Calm,-,N/A,,Partly Cloudy,0,2012-11-13 07:55:00
1:15 AM,17.6,10.4,73,30.40,10.0,Calm,Calm,-,N/A,,Partly Cloudy,0,2012-11-13 08:15:00
1:55 AM,17.6,10.4,73,30.39,10.0,Calm,Calm,-,N/A,,Clear,0,2012-11-13 08:55:00
2:35 AM,15.8,8.6,73,30.39,10.0,Calm,Calm,-,N/A,,Clear,0,2012-11-13 09:35:00
2:55 AM,15.8,8.6,73,30.39,10.0,Calm,Calm,-,N/A,,Partly Cloudy,0,2012-11-13 09:55:00
3:15 AM,14.0,8.6,79,30.38,10.0,Calm,Calm,-,N/A,,Partly Cloudy,0,2012-11-13 10:15:00
3:35 AM,15.8,8.6,73,30.38,10.0,Calm,Calm,-,N/A,,Clear,0,2012-11-13 10:35:00
4:15 AM,12.2,6.8,79,30.39,10.0,Calm,Calm,-,N/A,,Clear,0,2012-11-13 11:15:00
4:35 AM,10.4,5.0,79,30.39,10.0,ENE,4.6,-,N/A,,Clear,70,2012-11-13 11:35:00
4:55 AM,10.4,5.0,79,30.39,10.0,ENE,5.8,-,N/A,,Clear,60,2012-11-13 11:55:00
5:15 AM,10.4,5.0,79,30.40,10.0,NE,4.6,-,N/A,,Clear,40,2012-11-13 12:15:00
5:35 AM,10.4,3.2,73,30.40,10.0,Calm,Calm,-,N/A,,Scattered Clouds,0,2012-11-13 12:35:00
5:55 AM,12.2,6.8,79,30.40,10.0,Calm,Calm,-,N/A,,Overcast,0,2012-11-13 12:55:00
6:15 AM,12.2,6.8,79,30.41,10.0,NE,3.5,-,N/A,,Overcast,50,2012-11-13 13:15:00
6:35 AM,10.4,3.2,73,30.41,10.0,ENE,4.6,-,N/A,,Mostly Cloudy,60,2012-11-13 13:35:00
6:55 AM,12.2,6.8,79,30.41,10.0,NNE,3.5,-,N/A,,Partly Cloudy,20,2012-11-13 13:55:00
7:35 AM,10.4,6.8,85,30.43,10.0,Calm,Calm,-,N/A,,Scattered Clouds,0,2012-11-13 14:35:00
7:55 AM,10.4,3.2,73,30.44,10.0,Calm,Calm,-,N/A,,Mostly Cloudy,0,2012-11-13 14:55:00
8:15 AM,12.2,8.6,85,30.43,10.0,Calm,Calm,-,N/A,,Partly Cloudy,0,2012-11-13 15:15:00
8:35 AM,14.0,6.8,73,30.43,10.0,Calm,Calm,-,N/A,,Clear,0,2012-11-13 15:35:00
8:55 AM,15.8,10.4,79,30.44,10.0,Calm,Calm,-,N/A,,Clear,0,2012-11-13 15:55:00
9:15 AM,17.6,10.4,73,30.43,10.0,Calm,Calm,-,N/A,,Clear,0,2012-11-13 16:15:00
9:35 AM,19.4,12.2,74,30.43,10.0,Calm,Calm,-,N/A,,Partly Cloudy,0,2012-11-13 16:35:00
9:55 AM,21.2,12.2,68,30.43,10.0,Calm,Calm,-,N/A,,Partly Cloudy,0,2012-11-13 16:55:00
10:15 AM,24.8,12.2,59,30.42,10.0,Calm,Calm,-,N/A,,Clear,0,2012-11-13 17:15:00
10:55 AM,26.6,12.2,55,30.42,10.0,Calm,Calm,-,N/A,,Clear,0,2012-11-13 17:55:00
11:15 AM,28.4,12.2,51,30.40,10.0,SSE,3.5,-,N/A,,Clear,160,2012-11-13 18:15:00
11:55 AM,30.2,14.0,51,30.37,10.0,Calm,Calm,-,N/A,,Clear,0,2012-11-13 18:55:00
12:15 PM,33.8,14.0,44,30.36,10.0,Calm,Calm,-,N/A,,Clear,0,2012-11-13 19:15:00
12:35 PM,35.6,14.0,41,30.35,10.0,Calm,Calm,-,N/A,,Clear,0,2012-11-13 19:35:00
12:55 PM,35.6,15.8,44,30.34,10.0,South,3.5,-,N/A,,Clear,180,2012-11-13 19:55:00
1:15 PM,37.4,12.2,36,30.34,10.0,SSW,3.5,-,N/A,,Clear,200,2012-11-13 20:15:00
1:35 PM,39.2,14.0,36,30.34,10.0,Calm,Calm,-,N/A,,Clear,0,2012-11-13 20:35:00
1:55 PM,39.2,15.8,39,30.33,10.0,SSW,4.6,-,N/A,,Clear,200,2012-11-13 20:55:00
2:15 PM,39.2,14.0,36,30.33,10.0,South,3.5,-,N/A,,Clear,190,2012-11-13 21:15:00
2:35 PM,39.2,14.0,36,30.33,10.0,SW,3.5,-,N/A,,Clear,220,2012-11-13 21:35:00
2:55 PM,41.0,15.8,36,30.33,10.0,West,6.9,-,N/A,,Clear,260,2012-11-13 21:55:00
3:35 PM,41.0,15.8,36,30.33,10.0,NE,3.5,-,N/A,,Clear,50,2012-11-13 22:35:00
3:55 PM,42.8,14.0,31,30.32,9.0,WSW,10.4,-,N/A,,Unknown,240,2012-11-13 22:55:00
4:15 PM,41.0,14.0,33,30.33,10.0,SW,8.1,-,N/A,,Clear,230,2012-11-13 23:15:00
4:35 PM,39.2,12.2,33,30.33,10.0,SW,8.1,-,N/A,,Clear,220,2012-11-13 23:35:00
4:55 PM,39.2,12.2,33,30.33,10.0,WSW,6.9,-,N/A,,Clear,240,2012-11-13 23:55:00
5:15 PM,37.4,12.2,36,30.33,10.0,WSW,4.6,-,N/A,,Clear,250,2012-11-14 00:15:00
5:35 PM,35.6,14.0,41,30.34,10.0,NNW,10.4,-,N/A,,Clear,330,2012-11-14 00:35:00
5:55 PM,32.0,12.2,44,30.35,10.0,NNW,8.1,-,N/A,,Clear,340,2012-11-14 00:55:00
6:15 PM,32.0,14.0,48,30.36,10.0,NNW,6.9,-,N/A,,Unknown,340,2012-11-14 01:15:00
6:35 PM,30.2,15.8,55,30.36,10.0,Calm,Calm,-,N/A,,Clear,0,2012-11-14 01:35:00
6:55 PM,30.2,15.8,55,30.37,10.0,Calm,Calm,-,N/A,,Clear,0,2012-11-14 01:55:00
7:15 PM,28.4,14.0,55,30.37,10.0,Calm,Calm,-,N/A,,Clear,0,2012-11-14 02:15:00
7:35 PM,28.4,14.0,55,30.37,10.0,Calm,Calm,-,N/A,,Clear,0,2012-11-14 02:35:00
7:55 PM,26.6,14.0,59,30.38,10.0,NNW,3.5,-,N/A,,Clear,340,2012-11-14 02:55:00
8:15 PM,24.8,15.8,69,30.39,10.0,Calm,Calm,-,N/A,,Clear,0,2012-11-14 03:15:00
8:35 PM,24.8,14.0,64,30.39,10.0,Calm,Calm,-,N/A,,Clear,0,2012-11-14 03:35:00
8:55 PM,23.0,12.2,63,30.40,10.0,Calm,Calm,-,N/A,,Clear,0,2012-11-14 03:55:00
9:15 PM,21.2,14.0,74,30.40,10.0,Calm,Calm,-,N/A,,Clear,0,2012-11-14 04:15:00
9:35 PM,21.2,12.2,68,30.40,10.0,Calm,Calm,-,N/A,,Clear,0,2012-11-14 04:35:00
9:55 PM,21.2,10.4,63,30.40,10.0,Calm,Calm,-,N/A,,Clear,0,2012-11-14 04:55:00
10:15 PM,19.4,14.0,80,30.40,10.0,Calm,Calm,-,N/A,,Clear,0,2012-11-14 05:15:00
10:35 PM,17.6,10.4,73,30.41,10.0,Calm,Calm,-,N/A,,Clear,0,2012-11-14 05:35:00
10:55 PM,17.6,10.4,73,30.41,10.0,Calm,Calm,-,N/A,,Clear,0,2012-11-14 05:55:00
11:15 PM,19.4,12.2,74,30.42,10.0,Calm,Calm,-,N/A,,Clear,0,2012-11-14 06:15:00
11:35 PM,17.6,10.4,73,30.42,10.0,Calm,Calm,-,N/A,,Clear,0,2012-11-14 06:35:00
11:55 PM,15.8,10.4,79,30.42,10.0,Calm,Calm,-,N/A,,Clear,0,2012-11-14 06:55:00